Regional Weather Roundup
Issued by NWS Wakefield, VA

Home | Current Version | Previous Version | Text Only | Print | Product List | Glossary On
Versions: 1 2 3 4 5 6 7 8 9 10 11 12 13 14 15 16 17 18 19 20 21 22 23 24 25 26 27 28 29 30 31 32 33 34 35 36 37 38 39 40 41 42 43 44 45 46 47 48 49 50
000
ASUS41 KAKQ 231310
RWRAKQ

REGIONAL WEATHER ROUNDUP
NATIONAL WEATHER SERVICE WAKEFIELD VA
900 AM EDT SAT AUG 23 2014

Note: "fair" indicates few or no clouds below 12,000 feet with no
significant weather and/or obstructions to visibility. * = Denotes
station may not report precipitation (e.g., rain,snow,etc.),
thunder or fog.

VAZ042-051-052>054-056-231400-
NORTHERN VIRGINIA

CITY           SKY/WX    TMP DP  RH WIND       PRES   REMARKS
WASH NATIONAL  CLOUDY    74  65  73 E8        30.02F
DULLES         LGT RAIN  68  66  93 E3        30.03R FOG
FORT BELVOIR   MOSUNNY   71  66  83 VRB5      30.02S
QUANTICO       CLOUDY    73  66  78 SE8       30.02S
FREDERICKSBRG* PTSUNNY   72  71  97 E3        30.00S
STAFFORD*      CLOUDY    72  72 100 E8        30.05S
WARRENTON      CLOUDY    72  72  99 E6        30.02R
CULPEPER*      CLOUDY   N/A N/A N/A CALM      30.02S
MANASSAS*      CLOUDY    70  68  94 E5        30.02
LEESBURG*      CLOUDY    70  68  94 CALM      30.04R
WINCHESTER     CLOUDY    70  68  94 E5        30.02S
$$

VAZ048-049-060>072-079>083-231400-
CENTRAL AND SOUTH CENTRAL VIRGINIA...AND NORTH CENTRAL NORTH CAROLINA

CITY           SKY/WX    TMP DP  RH WIND       PRES   REMARKS
RICHMOND       CLOUDY    74  70  87 E6        30.00R
CHESTERFIELD*  CLOUDY   N/A N/A N/A E6        30.01R
HANOVER        CLOUDY    72  70  93 E5        30.02R
TAPPAHANNOCK*  PTSUNNY   74  67  79 NE5       30.01S
CHARLOTTSVILLE CLOUDY    71  69  93 NE3       30.01S FOG
ORANGE*        CLOUDY    70  68  94 CALM      30.03S
LOUISA*        HVY RAIN  70  70 100 E3        30.01R
FARMVILLE*     LGT RAIN  73  72  94 CALM      29.99R
SOUTH HILL*    CLOUDY    75  73  94 CALM      30.03R
ROANOKE RAPIDS CLOUDY    73  72  94 CALM      29.97S
RALEIGH        PTSUNNY   77  70  79 SE7       29.97R
$$

VAZ088>098-231400-
SOUTHEAST VIRGINIA

CITY           SKY/WX    TMP DP  RH WIND       PRES   REMARKS
NORFOLK        PTSUNNY   77  70  79 E15       29.97S
VIRGINIA BEACH PTSUNNY   78  71  79 E10       29.97R
NORFOLK NAVAL  PTSUNNY   78  71  79 E14       29.99R
WEST POINT*    CLOUDY    75  72  88 N3        30.01S
NEWPORT NEWS   PTSUNNY   80  71  74 E12       29.98S
LANGLEY AFB    PTSUNNY   77  73  88 E12       29.97S
FORT EUSTIS    PTSUNNY   77  77 100 E7        29.97S
WILLIAMSBURG*  PTSUNNY   75  73  94 CALM      29.99F
FRANKLIN*      PTSUNNY   73  73 100 CALM      29.98R
WAKEFIELD      CLOUDY    76  71  85 CALM      29.98S
$$

VAZ020-022-025-037-045-231400-
WESTERN AND SOUTHWEST VIRGINIA

CITY           SKY/WX    TMP DP  RH WIND       PRES   REMARKS
STAUNTON*      CLOUDY    72  69  90 CALM      30.04S
HOT SPRINGS VA CLOUDY   N/A N/A N/A N3        30.16R
LYNCHBURG      CLOUDY   N/A N/A N/A CALM      30.02S HAZE
DANVILLE       CLOUDY    76  72  87 NE6       29.99R
MARTINSVILLE   CLOUDY    77  73  90 CALM      30.02S
ROANOKE        CLOUDY    74  69  85 CALM      30.03S
BLACKSBURG     CLOUDY    72  72 100 CALM      30.09R
DUBLIN*        CLOUDY    72  70  94 CALM      30.09R
MARION*        CLOUDY   N/A N/A N/A W8        30.12R
HILLSVILLE*    CLOUDY    69  66  90 NW8       30.10R
RICHLANDS*     RAIN      71  70  94 W5        30.11R VSB 3/4
WISE*          CLOUDY    72  72 100 W3        30.12S FOG
ABINGDON*      MOSUNNY   72  72 100 SW5       30.08S
$$

MDZ021>025-VAZ099-100-231400-
SOUTHERN MARYLAND AND THE DELMARVA PENINSULA

CITY           SKY/WX    TMP DP  RH WIND       PRES   REMARKS
PATUXENT RIVER PTSUNNY   74  66  76 E12       30.00F
BAY BRIDGE APT   N/A     72  64  78 E7        30.02S
LEONARDTOWN    CLOUDY    72  63  73 E7        30.03S
DOVER          MOSUNNY   72  68  87 NE12      30.02R
GEORGETOWN     MOSUNNY   75  66  73 E14       30.02S
EASTON         MOSUNNY   73  72  94 E3        30.05S
CAMBRIDGE      SUNNY     73  66  78 E6        30.00F
SALISBURY      SUNNY     75  66  73 NE7       30.01S
OCEAN CITY     SUNNY     75  66  73 E8        30.01R
WALLOPS ISLAND MOSUNNY   76  66  71 E15       30.00S
ACCOMACK*      PTSUNNY   73  64  73 E12       29.99S
$$

NCZ012>017-030>032-231400-
EASTERN NORTH CAROLINA

CITY           SKY/WX    TMP DP  RH WIND       PRES   REMARKS
ELIZABETH CITY CLOUDY    77  72  84 NE7       29.96S
AHOSKIE*       MOSUNNY   73  71  92 NE3       29.97S
EDENTON*       MOSUNNY   77  74  90 E6        29.96S
CURRITUCK*     PTSUNNY   78  70  76 NE5       29.97S
KILL DEVIL HLS MOSUNNY   79  70  75 NE5       29.95S
MANTEO         SUNNY     79  70  73 NE12      29.96R
CAPE HATTERAS  PTSUNNY   77  72  84 VRB3      29.95R
GOLDSBORO      MOSUNNY   77  75  94 E7        29.93S
WASHINGTON     MOSUNNY   77  73  89 E5        29.96R
GREENVILLE     PTSUNNY   77  75  94 E3        29.98R FOG
NEW BERN       LGT RAIN  79  73  82 E5        29.96S
WILMINGTON     MOSUNNY   80  75  84 E7        29.93R
$$

VAZ048-231400-
ELSEWHERE

CITY           SKY/WX    TMP DP  RH WIND       PRES   REMARKS
HARRISBURG PA  CLOUDY    69  62  78 E9        30.05R
BALTIMORE      LGT RAIN  70  65  84 E12       30.03S
ANNAPOLIS        N/A     72  65  78 E8        30.02S
ANDREWS AFB    PTSUNNY   70  67  89 E5        30.02S
WILMINGTON DE  CLOUDY    70  63  78 E9        30.05S
PHILADELPHIA   PTSUNNY   70  63  78 E9G21     30.06R
WILDWOOD NJ*   CLOUDY    72  63  73 NE10      30.03S
ATLANTIC CITY  MOSUNNY   71  64  78 E10       30.04R
HENDERSON NC   CLOUDY    73  70  89 SE5       29.99R FOG
GREENSBORO     PTSUNNY   78  72  81 N7        29.98R
ROCKY MOUNT    PTSUNNY   75  73  93 VRB3      29.97R FOG
FAYETTEVILLE   MOSUNNY   78  71  79 NE5       29.94R
CHARLOTTE      PTSUNNY   78  72  81 N5        29.98S
$$

VAZ100-231400-
MARINE

STATION/POSITION TIME  TEMP    WIND        PRES    WAVE   SWELL
                       AIR SEA DIR/SP/G            HT/PER HT/PER
                 (UTC) (F)     (DEG/KT/KT) (MB)    (FT/S) (FT/S)
44066 TX TWR #4  1300   70 72   60/ 19/ 21 1016.5R   6/ 7   2/ 9
CAPE MAY NJ      1300   72 79   70/  7/ 12 1016.0S
LEWES DE         1300   73 75   90/  9/ 10 1016.2R
15NM E FENWICK I 1200   73 75              1015.5R   4/ 5
OCEAN-CITY-INLET 1300   74 76   70/  8/ 11 1015.7R
WACHAPREAGUE VA  1200   75 79   50/ 10/ 15 1015.5R
THOMAS POINT MD  1300   71 78   90/ 11/ 13 1017.1R
GOOSES REEF MD   1300   72     110/ 12/ 16 1016.6R
COVE POINT MD    1300   71     100/ 14/ 16 1015.9F
SOLOMONS ISLAND  1300      80                N/A
BISHOPS HEAD MD  1300   72 76   70/ 12/ 14 1015.5R
PINEY POINT MD   1300           90/  7/ 10   N/A
POTOMAC MD       1300   74      90/ 10/ 14 1015.3R
CAMBRIDGE MD     1300   72 79   70/  6/  9 1015.9F
LEWISETTA VA     1300   74 78   90/ 12/ 14 1015.6S
RAPPAHANNOCK LGT 1300           50/ 12/ 13 1015.9F
STINGRAY PT      1300   75      80/ 14/ 16 1016.0S
YORK RVR RNG VA  1300   75      80/ 12/ 14 1014.8S
YORKTOWN VA      1300   76 81   70/ 13/ 14 1014.9F
JAMESTOWN VA     1300   73      70/  4/  6   N/A
DOMINION TERM VA 1300   77      30/  2/  5 1014.9F
KIPTOPEKE VA     1300      82   70/ 10/ 14   N/A
CHES BAY BRIDGE  1300   76 74   40/ 15/ 17 1014.4R
CAPE HENRY VA    1300   76      50/ 16/ 18 1013.6S
WILLOUBY STN VA  1300   76      80/ 13/ 14 1013.7R
S CRANEY ISL VA  1300           40/ 11/ 13 1014.6S
CAPE HENRY BUOY  1300      78                N/A     3/ 7
1ST LANDING BUOY 1300   76      60/ 16/ 17 1014.5S
CAPE CHARLES BUO 1300      77                N/A     3/ 5
OFFSHORE WE BUOY 1200      78                N/A     3/ 5
64NM E OF VA BCH 1300   77 78   50/ 14/ 16 1013.9R   3/ 5   2/ 7
DUCK PIER NC     1300   77 80   50/  9/ 10 1013.9S
44056 DUCK FRF   1200                        N/A     2/ 7
OREGON INLET NC  1300   78 81   30/ 11/ 13 1014.1R
HATTERAS NC      1300   80 82   40/  6/  8 1014.5R
DIAMOND SHLS NC  1300   79     350/  6/  8 1013.8R   2/ 8   2/ 8
CAPE LOOKOUT NC  1200   80      30/  9/ 11 1013.8R
$$


USA.gov is the U.S. government's official web portal to all federal, state and local government web resources and services.